Flag for Mozambique Weather past 2 weeks in Beira, Mozambique

Now
75 °F

Passing clouds.


Feels Like: 77 °F
Forecast: 64 / 74 °F
Wind: 12 mph from Southeast

Location: Beira Airport

Current Time: Jul 22, 2014 at 1:44:44 PM

Latest Report: Jul 22, 2014 at 1:00 PM


Visibility: N/A

Pressure: 30.21 "Hg

Humidity: 65%

Dew point: 63 °F

Location of BeiraLocation

Historic Weather in Beira — Graph

°F

Beira temperature yesterday

Maximum temperature yesterday: 75 °F (at 11:00 AM)
Minimum temperature yesterday: 64 °F (at 5:00 AM)
Average temperature yesterday: 71 °F

Past Weeks' High & Low Weather Summary

 TemperatureHumidityPressure
High88 °F (Jul 18, 3:00 PM)100% (Jul 7, 8:00 PM)30.42 "Hg (Jul 7, 8:00 PM)
Low61 °F (Jul 17, 8:00 AM)31% (Jul 18, 3:00 PM)29.89 "Hg (Jul 18, 3:00 PM)
Average72 °F80%30.12 "Hg
* Reported Jul 7 12:00 Noon — Jul 22 12:00 Noon, Beira, Weather by CustomWeather, © 2014

Note: Actual official high and low records may vary slightly from our data, if they occured in-between our weather recording intervals... More about our weather records

Advertising

Beira weather history for previous 24 hours

 ConditionsComfort  
Time TempWeatherWind HumidityBarometerVisibility
12:00 PM
Jul 22
77 °FPassing clouds.13 mph57%30.24 "HgN/A
11:00 AM73 °FPassing clouds.12 mph69%30.27 "HgN/A
10:00 AM72 °FPassing clouds.10 mph78%30.30 "HgN/A
9:00 AM70 °FPassing clouds.9 mph78%30.27 "HgN/A
8:00 AM66 °FScattered clouds.9 mph83%30.27 "HgN/A
7:00 AM68 °FScattered clouds.8 mph78%30.27 "HgN/A
6:00 AM70 °FPassing clouds.8 mph69%30.27 "HgN/A
5:00 AM70 °FPassing clouds.9 mph69%30.24 "HgN/A
12:00 AM72 °FPassing clouds.14 mph69%30.27 "HgN/A
11:00 PM
Jul 21
72 °FPassing clouds.14 mph69%30.27 "HgN/A
9:00 PM72 °FPartly cloudy.14 mph83%30.27 "HgN/A
8:00 PM72 °FPartly cloudy.13 mph83%30.27 "HgN/A
7:00 PM72 °FPartly cloudy.15 mph83%30.24 "HgN/A
5:00 PM70 °FBroken clouds.15 mph88%30.24 "HgN/A
4:00 PM73 °FBroken clouds.13 mph78%30.24 "HgN/A
3:00 PM73 °FBroken clouds.17 mph78%30.21 "HgN/A
2:00 PM75 °FBroken clouds.20 mph78%30.21 "HgN/A
1:00 PM75 °FPassing clouds.18 mph78%30.21 "HgN/A
Weather by CustomWeather, © 2014

See weather overviewHow to use our weather pages